• In Uzbekistan
  • List of Countries
  • For 7 days
  • Water Temperature
  • Satellite Maps
  • Weather Map
  • Weather Widgets
  • user-avatar
    Login

    Hourly Weather Lubango

    Today, 25 May, Thursday

    Time Temperature Precipitation Wind Pressure Humidity
    00:00 +9°C° 0 mm 1 mps 607 mmHg 67%
    01:00 +9°C° 0 mm 1 mps 607 mmHg 65%
    02:00 +9°C° 0 mm 1 mps 607 mmHg 64%
    03:00 +9°C° 0 mm 1 mps 606 mmHg 63%
    04:00 +9°C° 0 mm 1 mps 606 mmHg 63%
    05:00 +10°C° 0 mm 1 mps 607 mmHg 60%
    06:00 +11°C° 0 mm 1 mps 607 mmHg 57%
    07:00 +11°C° 0 mm 1 mps 608 mmHg 55%
    08:00 +15°C° 0 mm 2 mps 609 mmHg 46%
    09:00 +19°C° 0 mm 2 mps 611 mmHg 37%
    10:00 +24°C° 0 mm 2 mps 613 mmHg 29%
    11:00 +25°C° 0 mm 2 mps 612 mmHg 25%
    12:00 +27°C° 0 mm 2 mps 612 mmHg 22%
    13:00 +28°C° 0 mm 2 mps 612 mmHg 18%
    14:00 +27°C° 0 mm 2 mps 612 mmHg 19%
    15:00 +27°C° 0 mm 2 mps 611 mmHg 20%
    16:00 +26°C° 0 mm 2 mps 611 mmHg 20%
    17:00 +21°C° 0 mm 2 mps 609 mmHg 30%
    18:00 +17°C° 0 mm 2 mps 608 mmHg 40%
    19:00 +13°C° 0 mm 1 mps 607 mmHg 50%
    20:00 +12°C° 0 mm 1 mps 607 mmHg 54%
    21:00 +11°C° 0 mm 1 mps 607 mmHg 57%
    22:00 +10°C° 0 mm 1 mps 607 mmHg 60%
    23:00 +11°C° 0 mm 1 mps 607 mmHg 59%

    Tomorrow, 26 May, Friday

    Time Temperature Precipitation Wind Pressure Humidity
    00:00 +11°C° 0 mm 1 mps 607 mmHg 58%
    01:00 +11°C° 0 mm 1 mps 607 mmHg 57%
    02:00 +11°C° 0 mm 1 mps 607 mmHg 57%
    03:00 +10°C° 0 mm 1 mps 606 mmHg 58%
    04:00 +10°C° 0 mm 1 mps 606 mmHg 58%
    05:00 +11°C° 0 mm 1 mps 607 mmHg 57%
    06:00 +11°C° 0 mm 1 mps 607 mmHg 55%
    07:00 +12°C° 0 mm 1 mps 608 mmHg 54%
    08:00 +16°C° 0 mm 1 mps 610 mmHg 45%
    09:00 +21°C° 0 mm 1 mps 611 mmHg 36%
    10:00 +26°C° 0 mm 1 mps 613 mmHg 27%
    11:00 +26°C° 0 mm 1 mps 613 mmHg 25%
    12:00 +27°C° 0 mm 2 mps 613 mmHg 23%
    13:00 +28°C° 0 mm 2 mps 612 mmHg 21%
    14:00 +27°C° 0 mm 2 mps 612 mmHg 22%
    15:00 +27°C° 0 mm 2 mps 612 mmHg 23%
    16:00 +26°C° 0 mm 2 mps 611 mmHg 24%
    17:00 +23°C° 0 mm 2 mps 610 mmHg 33%
    18:00 +18°C° 0 mm 2 mps 609 mmHg 42%
    19:00 +14°C° 0 mm 2 mps 608 mmHg 51%
    20:00 +13°C° 0 mm 1 mps 608 mmHg 57%
    21:00 +13°C° 0 mm 1 mps 608 mmHg 62%
    22:00 +12°C° 0 mm 1 mps 608 mmHg 68%
    23:00 +11°C° 0 mm 1 mps 608 mmHg 70%

    Day after tomorrow, 27 May, Saturday

    Time Temperature Precipitation Wind Pressure Humidity
    00:00 +10°C° 0 mm 1 mps 608 mmHg 73%
    01:00 +10°C° 0 mm 1 mps 607 mmHg 76%
    02:00 +10°C° 0 mm 1 mps 607 mmHg 75%
    03:00 +10°C° 0 mm 1 mps 607 mmHg 75%
    04:00 +9°C° 0 mm 1 mps 607 mmHg 74%
    05:00 +10°C° 0 mm 1 mps 607 mmHg 70%
    06:00 +11°C° 0 mm 1 mps 608 mmHg 65%
    07:00 +11°C° 0 mm 1 mps 608 mmHg 61%
    08:00 +15°C° 0 mm 1 mps 610 mmHg 49%
    09:00 +21°C° 0 mm 1 mps 613 mmHg 38%
    10:00 +25°C° 0 mm 2 mps 615 mmHg 26%
    11:00 +26°C° 0 mm 2 mps 614 mmHg 24%
    12:00 +27°C° 0 mm 1 mps 614 mmHg 22%
    13:00 +29°C° 0 mm 1 mps 614 mmHg 20%
    14:00 +28°C° 0 mm 1 mps 613 mmHg 21%
    15:00 +27°C° 0 mm 1 mps 613 mmHg 23%
    16:00 +26°C° 0 mm 1 mps 612 mmHg 24%
    17:00 +23°C° 0 mm 1 mps 611 mmHg 33%
    18:00 +19°C° 0 mm 1 mps 610 mmHg 41%
    19:00 +14°C° 0 mm 1 mps 609 mmHg 50%
    20:00 +13°C° 0 mm 1 mps 609 mmHg 53%
    21:00 +13°C° 0 mm 1 mps 609 mmHg 57%
    22:00 +12°C° 0 mm 1 mps 609 mmHg 61%
    23:00 +12°C° 0 mm 1 mps 609 mmHg 61%

    28 May, Sunday

    Time Temperature Precipitation Wind Pressure Humidity
    00:00 +12°C° 0 mm 1 mps 608 mmHg 61%
    01:00 +11°C° 0 mm 1 mps 608 mmHg 60%
    02:00 +11°C° 0 mm 1 mps 608 mmHg 59%
    03:00 +11°C° 0 mm 1 mps 608 mmHg 59%
    04:00 +11°C° 0 mm 1 mps 607 mmHg 58%
    05:00 +12°C° 0 mm 1 mps 608 mmHg 57%
    06:00 +12°C° 0 mm 1 mps 609 mmHg 56%
    07:00 +13°C° 0 mm 1 mps 610 mmHg 55%
    08:00 +18°C° 0 mm 1 mps 611 mmHg 47%
    09:00 +20°C° 0 mm 2 mps 613 mmHg 38%
    10:00 +25°C° 0 mm 2 mps 615 mmHg 30%
    11:00 +26°C° 0 mm 2 mps 615 mmHg 27%
    12:00 +28°C° 0 mm 1 mps 614 mmHg 25%
    13:00 +29°C° 0 mm 1 mps 614 mmHg 23%
    14:00 +28°C° 0 mm 1 mps 613 mmHg 24%
    15:00 +27°C° 0 mm 1 mps 613 mmHg 26%
    16:00 +26°C° 0 mm 1 mps 612 mmHg 28%
    17:00 +23°C° 0 mm 1 mps 611 mmHg 33%
    18:00 +20°C° 0 mm 1 mps 611 mmHg 39%
    19:00 +16°C° 0 mm 1 mps 610 mmHg 45%
    20:00 +16°C° 0 mm 1 mps 610 mmHg 48%
    21:00 +15°C° 0 mm 1 mps 610 mmHg 52%
    22:00 +14°C° 0 mm 1 mps 610 mmHg 55%
    23:00 +13°C° 0 mm 1 mps 609 mmHg 57%

    29 May, Monday

    Time Temperature Precipitation Wind Pressure Humidity
    00:00 +13°C° 0 mm 1 mps 609 mmHg 58%
    01:00 +12°C° 0 mm 1 mps 608 mmHg 59%
    02:00 +12°C° 0 mm 1 mps 608 mmHg 58%
    03:00 +12°C° 0 mm 1 mps 608 mmHg 58%
    04:00 +12°C° 0 mm 1 mps 608 mmHg 57%
    05:00 +13°C° 0 mm 1 mps 609 mmHg 54%
    06:00 +13°C° 0 mm 1 mps 609 mmHg 52%
    07:00 +13°C° 0 mm 1 mps 610 mmHg 49%
    08:00 +18°C° 0 mm 1 mps 611 mmHg 41%
    09:00 +22°C° 0 mm 1 mps 613 mmHg 33%
    10:00 +26°C° 0 mm 1 mps 615 mmHg 25%
    11:00 +27°C° 0 mm 1 mps 614 mmHg 24%
    12:00 +28°C° 0 mm 1 mps 614 mmHg 23%
    13:00 +29°C° 0 mm 1 mps 614 mmHg 22%
    14:00 +28°C° 0 mm 1 mps 613 mmHg 25%
    15:00 +27°C° 0 mm 1 mps 612 mmHg 27%
    16:00 +25°C° 0 mm 1 mps 612 mmHg 30%
    17:00 +23°C° 0 mm 1 mps 611 mmHg 32%
    18:00 +19°C° 0 mm 2 mps 610 mmHg 35%
    19:00 +17°C° 0 mm 2 mps 610 mmHg 38%
    20:00 +16°C° 0 mm 2 mps 610 mmHg 41%
    21:00 +15°C° 0 mm 2 mps 609 mmHg 43%
    22:00 +14°C° 0 mm 1 mps 609 mmHg 46%
    23:00 +13°C° 0 mm 1 mps 609 mmHg 46%

    30 May, Tuesday

    Time Temperature Precipitation Wind Pressure Humidity
    00:00 +13°C° 0 mm 1 mps 609 mmHg 47%
    01:00 +12°C° 0 mm 1 mps 608 mmHg 47%
    02:00 +13°C° 0 mm 1 mps 608 mmHg 46%
    03:00 +13°C° 0 mm 2 mps 608 mmHg 45%
    04:00 +13°C° 0 mm 2 mps 608 mmHg 44%
    05:00 +13°C° 0 mm 2 mps 609 mmHg 43%
    06:00 +13°C° 0 mm 2 mps 609 mmHg 43%
    07:00 +13°C° 0 mm 2 mps 610 mmHg 42%
    08:00 +17°C° 0 mm 2 mps 611 mmHg 36%
    09:00 +21°C° 0 mm 3 mps 613 mmHg 29%
    10:00 +25°C° 0 mm 3 mps 614 mmHg 23%
    11:00 +26°C° 0 mm 2 mps 614 mmHg 22%
    12:00 +28°C° 0 mm 2 mps 614 mmHg 20%
    13:00 +29°C° 0 mm 2 mps 613 mmHg 19%
    14:00 +28°C° 0 mm 1 mps 613 mmHg 21%
    15:00 +28°C° 0 mm 1 mps 612 mmHg 23%
    16:00 +28°C° 0 mm 1 mps 612 mmHg 24%
    17:00 +24°C° 0 mm 1 mps 611 mmHg 31%
    18:00 +20°C° 0 mm 1 mps 610 mmHg 37%
    19:00 +16°C° 0 mm 1 mps 609 mmHg 43%
    20:00 +15°C° 0 mm 1 mps 609 mmHg 44%
    21:00 +14°C° 0 mm 1 mps 609 mmHg 45%
    22:00 +13°C° 0 mm 1 mps 609 mmHg 46%
    23:00 +13°C° 0 mm 1 mps 609 mmHg 48%
    Show more